Xining

China     36˚38′21″N   101˚44′33″E
temp.,
°C
wind,
m/s
gust,
m/s
humid.,
%
clouds,
%
prec.,
mm/h
press.,
hPa
HPBL,
m
29 november, sun
sun2923:00−4˚n1247100 0.0 102424
02:00−6˚sse1264100 0.0 102543
05:00−8˚nnw016710 0.0 102723
08:00−9˚n22605 0.0 102926
11:00−5˚n11460 0.0 1028293
14:00−1˚ne11400 0.0 1024521
17:00−2˚nne114657 0.0 1024282
20:00−5˚n225648 0.0 102666
30 november, mon
mon3023:00−6˚nnw2256100 0.0 102668
02:00−7˚e0059100 0.0 102624
05:00−8˚n226491 0.0 102727
08:00−9˚nnw236646 0.0 102741
11:00−4˚nnw22490 0.0 1024285
14:00n22452 0.0 1019472
17:00−1˚nne115267 0.0 1020189
20:00−3˚ne125983 0.0 102428
1 december, tue
tue123:00−5˚sse1159100 0.0 102756
02:00−5˚s1161100 0.0 102885
05:00−6˚nne0166100 0.0 102825
08:00−9˚nnw227298 0.0 102944
11:00−6˚nne116171 0.0 1027426
14:00−3˚n215472 0.0 1021677
17:00−3˚ene126799 0.1 1021342
20:00−6˚n238464 0.1 102540
2 december, wed
wed223:00−8˚nne11813 0.0 102725
02:00−8˚ne117631 0.0 102783
05:00−10˚nne128563 0.0 102936
08:00−11˚ene119063 0.0 103326
11:00−8˚se246899 0.1 1033685
14:00−6˚sse4453100 0.1 1031899
17:00−8˚sse3561100 0.0 1033618
20:00−11˚sse2279100 0.1 1039377
3 december, thu
thu323:00−12˚sw1279100 0.1 1041367
02:00−12˚nw1180100 0.2 1040154
05:00−14˚nnw2283100 0.1 1040129
08:00−14˚nnw2280100 0.1 1040124
11:00−12˚n226799 0.1 1037369
14:00−9˚n116097 0.2 1029566
17:00−9˚n115991 0.0 1029407
20:00−11˚n228696 0.5 1032116